Terminal Aerodrome Forecast
Issued by NWS Blacksburg, VA

Current Version | Previous Version | Text Only | Print | Product List | Glossary Off
Versions: 1 2 3 4 5 6 7 8 9 10 11 12 13 14 15 16 17 18 19 20 21 22 23 24 25 26 27 28 29 30 31 32 33 34

064
FTUS41 KRNK 181532 AAB
TAFBLF
TAF AMD
KBLF 181532Z 1816/1912 28012G21KT P6SM BKN021
     FM181800 30012G24KT P6SM BKN020
     FM182300 29007KT P6SM BKN012
     FM190200 28005KT P6SM SCT012=

USA.gov is the U.S. government's official web portal to all federal, state and local government web resources and services.